Regional Weather Roundup
Issued by NWS Wilmington, NC

Home | Current Version | Previous Version | Text Only | Print | Product List | Glossary On
Versions: 1 2 3 4 5 6 7 8 9 10 11 12 13 14 15 16 17 18 19 20 21 22 23 24 25 26 27 28 29 30 31 32 33 34 35 36
000
ASUS42 KILM 231110
RWRILM
RWRILM
REGIONAL HOURLY WEATHER ROUNDUP
NATIONAL WEATHER SERVICE WILMINGTON NC
700 AM EDT THU OCT 23 2014

NOTE: "FAIR" INDICATES FEW OR NO CLOUDS BELOW 12,000 FEET WITH NO
SIGNIFICANT WEATHER AND/OR OBSTRUCTIONS TO VISIBILITY.

...............WFO WILMINGTON COUNTY WARNING AREA...............

......COASTAL NC AND SC COUNTIES......

CITY           SKY/WX    TMP DP  RH WIND       PRES   REMARKS
WILMINGTON     CLEAR     47  42  83 NW7       30.00S
SOUTHPORT      CLEAR     47  41  79 NW12      30.00S
N MYRTLE BEACH CLEAR     46  42  86 NW6       30.03R
MYRTLE BEACH   NOT AVBL

......INLAND NC AND SC COUNTIES.......

CITY           SKY/WX    TMP DP  RH WIND       PRES   REMARKS
LUMBERTON      CLEAR     42  39  89 W5        30.03R
ELIZABETHTOWN  CLEAR     48  42  79 NW3       30.02R
WHITEVILLE     CLEAR     45  41  86 CALM      30.02S
FLORENCE       CLEAR     47  40  76 W7        30.06R
DARLINGTON     CLEAR     45  37  76 NW6       30.07R

....................REST OF NORTH CAROLINA......................

.........EASTERN NC.........

CITY           SKY/WX    TMP DP  RH WIND       PRES   REMARKS
CAPE HATTERAS  MOCLDY    54  46  74 NW16G25   29.90S
JACKSONVILLE   CLEAR     46  39  76 CALM      30.01R
MOREHEAD CITY  CLEAR     51  45  79 NW16      29.97R
KENANSVILLE    CLEAR     46  41  85 W5        30.02R
NEW BERN       CLEAR     50  43  77 NW8       29.99R
ELIZABETH CITY PTCLDY    51  43  74 W14       29.91R

.........CENTRAL NC.........

CITY           SKY/WX    TMP DP  RH WIND       PRES   REMARKS
RALEIGH DURHAM CLEAR     45  39  79 CALM      30.02R
ROCKY MOUNT    CLEAR     48  41  76 W8        29.99R
ROANOKE RAPIDS NOT AVBL
FAYETTEVILLE   CLEAR     50  41  71 NW8       30.02R
HOFFMAN        CLEAR     43  41  94 NW6       30.05S

.........WESTERN NC.........

CITY           SKY/WX    TMP DP  RH WIND       PRES   REMARKS
CHARLOTTE      CLEAR     41  36  82 NW6       30.09R
GREENSBORO     CLEAR     42  38  85 NW3       30.03R
HICKORY        NOT AVBL
BOONE          NOT AVBL
ASHEVILLE      NOT AVBL

.....................REST OF SOUTH CAROLINA.....................

.........EASTERN SC.........

CITY           SKY/WX    TMP DP  RH WIND       PRES   REMARKS
CHARLESTON     CLEAR     48  42  80 NW3       30.08R
BEAUFORT MCAS  CLEAR     49  44  83 N6        30.09R
HILTON HEAD    NOT AVBL

.........CENTRAL SC.........

CITY           SKY/WX    TMP DP  RH WIND       PRES   REMARKS
COLUMBIA       CLEAR     42  37  82 CALM      30.08S
ORANGEBURG     CLEAR     44  39  82 N3        30.09R
SUMTER SHAW    CLEAR     46  41  84 NW10      30.06S

.........WESTERN SC.........

CITY           SKY/WX    TMP DP  RH WIND       PRES   REMARKS
GREENVILLE     NOT AVBL
ROCK HILL      CLEAR     38  37  97 CALM      30.09R
ANDERSON       CLEAR     37  37 100 CALM      30.10S FOG
CLEMSON        NOT AVBL
GREENWOOD      CLEAR     36  34  92 CALM      30.12R


...................COASTAL AND OFFSHORE REPORTS..................

................LOCAL PIERS AND NC RESERVE................


STATION/POSITION TIME  SKY/WX   TEMP    WIND        PRES    VSBY
                                AIR SEA DIR/SP/G
                 (UTC)          (F)     (DEG/KT/KT) (MB)    (MI)
JOHNY MRCER PIER 1100            50 73  320/ 11/ 14 1015.0F
NC RESRV MASNBRO NOT AVBL
OCEAN CREST PIER 1100            49 70  310/ 10/ 13 1015.1R
SPRINGMAID  PIER 1100            48 70  310/  7/  9 1016.8R


................COASTAL AND OFFSHORE BUOYS................


STATION/POSITION TIME  SKY/WX   TEMP    WIND        PRES    VSBY
                                AIR SEA DIR/SP/G
                 (UTC)          (F)     (DEG/KT/KT) (MB)    (MI)
DIMNDSHOAL 41025 1100            58     300/ 25/ 31 1011.7S
WVE H/P(F/S)=  6/ 5 WND WVE H/P(F/S)=  7/ 5 SWL H/P/D(F/S/D)=  2/ 30/ 9

CAPE LOOKOUT     1100            55     310/ 15/ 18 1014.3R
ONSLOW BAY 41036 1100            60 75  340/ 19/ 23 1013.9F
WVE H/P(F/S)=  4/ 4 WND WVE H/P(F/S)=  3/ 4

5 WRITEBCH 41038 1000            53 72  340/ 19/ 21   N/A
MASONBORO  41110 1100               72                N/A
WVE H/P(F/S)=  2/ 3 WND WVE H/P(F/S)=  2/ 3

WILM HARBR 41108 1100               72                N/A
WVE H/P(F/S)=  4/ 4 WND WVE H/P(F/S)=  3/ 4

27WRITEBCH 41037 1000            58 75  350/ 19/ 23 1014.8R
FRYING PAN 41013 1100            60 74  350/ 16/ 19 1016.2R
WVE H/P(F/S)=  4/ 5 WND WVE H/P(F/S)=  3/ 5 SWL H/P/D(F/S/D)=  2/150/10

SUNST NRSH 41024 1000            52     340/ 12/ 16 1015.8R
CAPRS NRSH 41029 NOT AVBL
EDISTO     41004 1100            63 78  330/ 10/ 14 1016.6R
WVE H/P(F/S)=  4/ 5 WND WVE H/P(F/S)=  2/ 4 SWL H/P/D(F/S/D)=  3/ 5



..........OFFSHORE BUOYS BEYOND 100 NM OFFSHORE...........
.....IN A TRIANGLE---HAT TO BERMUDA TO BAHAMAS TO HAT.....


STATION/POSITION TIME  SKY/WX   TEMP    WIND        PRES    VSBY
                                AIR SEA DIR/SP/G
                 (UTC)          (F)     (DEG/KT/KT) (MB)    (MI)
150E HAT   41001 NOT AVBL
W BERMUDA  41048 1036            74 79  270/ 17/ 23 1010.0R
WVE H/P(F/S)=  8/ 8 WND WVE H/P(F/S)=  8/ 8

ATLANTIC S 41049 1042            81 81  190/ 12/ 16 1014.1R
WVE H/P(F/S)=  4/ 9 WND WVE H/P(F/S)=  2/ 3 SWL H/P/D(F/S/D)=  3/ 80/ 9

E BAHAMAS  41046 1008            82 83  150/  8/ 10 1013.4R
WVE H/P(F/S)=  3/ 8 WND WVE H/P(F/S)=  2/ 4 SWL H/P/D(F/S/D)=  3/ 50/ 8

NE BAHAMAS 41047 1027            76 82  300/  8/ 12 1012.6R
WVE H/P(F/S)=  3/10 WND WVE H/P(F/S)=  2/ 4 SWL H/P/D(F/S/D)=  2/ 80/10

120E CANVRL41010 1100            73 81   20/ 12/ 16 1014.8R
WVE H/P(F/S)=  4/ 7 WND WVE H/P(F/S)=  2/ 5 SWL H/P/D(F/S/D)=  3/340/ 7


END



USA.gov is the U.S. government's official web portal to all federal, state and local government web resources and services.